Date,TemperatureHighF,TemperatureAvgF,TemperatureLowF,DewpointHighF,DewpointAvgF,DewpointLowF,HumidityHigh,HumidityAvg,HumidityLow,PressureMaxIn,PressureMinIn,WindSpeedMaxMPH,WindSpeedAvgMPH,GustSpeedMaxMPH,PrecipitationSumIn
2013-1-1,76,65,53,68,62,51,99,90,69,30.10,29.92,16,1,16,0.12
2013-1-2,54,48,42,51,45,40,94,88,81,30.20,30.00,14,2,14,0.06
2013-1-3,46,40,35,40,35,28,96,83,62,30.37,30.19,14,2,14,0.43
2013-1-4,55,43,33,36,31,27,86,65,37,30.44,30.32,12,1,14,0.00
2013-1-5,50,45,37,39,36,32,87,70,59,30.37,30.24,7,0,7,0.00
2013-1-6,50,46,40,46,42,38,96,87,70,30.29,30.19,9,1,9,0.10
2013-1-7,60,47,36,42,38,34,96,75,42,30.33,30.20,10,1,10,0.00
2013-1-8,68,56,44,60,51,39,89,82,71,30.25,30.14,7,1,7,0.00
2013-1-9,67,64,60,66,62,56,98,93,86,30.24,30.16,10,1,10,0.04
2013-1-10,72,67,62,68,65,61,98,94,87,30.23,29.99,20,2,20,0.42
2013-1-11,80,70,62,69,66,61,98,89,66,30.14,30.05,12,1,12,0.00
2013-1-12,76,70,67,70,68,67,99,94,80,30.10,29.97,13,1,13,0.00
2013-1-13,76,71,61,71,69,60,97,91,82,30.02,29.93,13,1,13,0.05
2013-1-14,61,51,42,60,50,41,98,96,94,30.12,30.01,13,2,15,0.03
2013-1-15,62,51,43,61,50,42,98,97,93,30.08,29.93,9,0,9,1.05
2013-1-16,55,47,41,54,45,40,98,96,92,30.06,29.94,10,1,10,0.05
2013-1-17,49,41,35,40,36,32,96,81,61,30.37,30.04,18,2,18,0.02
2013-1-18,56,43,34,40,36,32,96,78,45,30.53,30.36,12,1,12,0.00
2013-1-19,63,46,32,48,39,30,97,78,51,30.41,30.24,6,0,6,0.00
2013-1-20,64,50,35,51,43,34,98,79,48,30.28,30.13,7,0,7,0.01
2013-1-21,54,50,46,44,42,38,76,72,67,30.21,30.18,6,0,6,0.00
2013-1-22,58,46,36,38,33,27,88,64,38,30.37,30.21,8,1,9,0.00
2013-1-23,68,50,33,52,42,31,95,77,50,30.41,30.29,12,0,12,0.00
2013-1-24,72,58,42,58,52,41,98,81,55,30.34,30.21,6,0,6,0.00
2013-1-25,72,59,46,58,53,46,98,83,57,30.28,30.14,11,0,12,0.00
2013-1-26,73,62,54,63,58,52,98,87,65,30.25,30.17,7,0,7,0.01
2013-1-27,72,58,46,62,55,45,98,89,70,30.32,30.23,11,0,11,0.00
2013-1-28,75,64,53,66,60,52,99,90,64,30.28,30.14,12,1,12,0.01
2013-1-29,76,70,66,71,68,64,97,93,82,30.14,29.85,15,1,15,0.31
2013-1-30,74,62,42,71,58,31,96,86,60,30.12,29.68,20,3,20,0.96
2013-1-31,57,45,31,38,32,26,95,66,30,30.31,30.11,8,1,13,0.00
2013-2-1,58,47,34,38,35,29,86,65,38,30.41,30.30,12,1,12,0.00
2013-2-2,65,51,28,51,40,25,95,69,39,30.37,30.18,9,0,9,0.00
2013-2-3,66,54,40,51,41,29,98,67,26,30.26,30.12,11,1,11,0.00
2013-2-4,63,51,40,52,43,36,94,75,50,30.13,29.98,7,0,7,0.03
2013-2-5,68,58,51,62,56,50,98,93,82,30.03,29.95,8,0,8,0.60
2013-2-6,71,60,50,61,57,50,98,89,65,30.15,30.01,10,0,10,0.02
2013-2-7,76,62,51,62,58,50,98,87,60,30.02,29.80,23,1,23,2.13
2013-2-8,73,59,48,61,54,47,98,83,54,30.16,29.94,15,1,15,0.00
2013-2-9,65,54,42,53,47,40,95,79,54,30.25,30.11,10,1,10,0.00
2013-2-10,71,64,54,69,62,52,96,92,87,30.12,29.95,22,2,22,0.13
2013-2-11,70,62,56,68,60,55,99,95,82,30.12,29.99,15,1,15,0.75
2013-2-12,70,61,54,70,60,54,99,97,95,30.05,29.75,11,1,11,0.54
2013-2-13,68,52,43,67,50,41,97,93,81,30.06,29.76,6,1,14,0.32
2013-2-14,58,47,37,44,40,36,96,80,50,30.17,30.05,10,0,10,0.00
2013-2-15,65,49,32,47,39,32,98,72,35,30.18,30.04,9,0,9,0.01
2013-2-16,53,46,32,41,27,15,75,51,26,30.29,30.09,18,2,18,0.00
2013-2-17,56,41,25,32,25,20,93,56,27,30.39,30.26,9,0,9,0.00
2013-2-18,65,57,33,54,46,31,96,70,48,30.29,30.02,20,3,20,0.00
2013-2-19,66,59,45,61,46,28,96,67,26,30.20,29.96,16,2,16,0.58
2013-2-20,57,46,37,33,28,20,84,51,25,30.28,30.09,14,1,14,0.00
2013-2-21,66,56,37,64,47,31,94,74,54,30.09,29.86,18,2,18,0.00
2013-2-22,70,65,60,67,61,51,98,88,60,29.98,29.85,13,1,13,1.51
2013-2-23,60,57,54,59,55,52,97,95,90,29.96,29.75,9,1,9,0.92
2013-2-24,69,58,46,58,53,46,98,83,59,30.00,29.81,9,1,9,0.33
2013-2-25,67,61,56,66,60,55,99,96,90,29.85,29.48,13,2,13,4.34
2013-2-26,64,55,47,63,45,39,97,72,47,29.92,29.51,12,1,12,0.01
2013-2-27,67,53,42,47,43,40,94,73,38,30.03,29.91,7,0,7,0.00
2013-2-28,60,50,37,46,36,26,96,62,29,30.09,29.98,10,1,15,0.00
2013-3-1,59,46,36,36,33,29,87,61,34,30.16,30.00,13,1,13,0.00
2013-3-2,47,38,30,31,27,23,88,64,46,30.22,30.10,13,2,13,0.00
2013-3-3,52,39,27,30,24,20,83,57,29,30.25,30.13,12,1,12,0.00
2013-3-4,66,51,30,53,43,28,96,77,52,30.17,29.97,13,1,13,0.00
2013-3-5,74,63,43,63,54,38,86,72,51,30.14,29.91,15,1,15,0.00
2013-3-6,59,48,37,39,31,26,88,55,29,30.27,30.14,18,2,18,0.00
2013-3-7,65,48,32,43,35,29,93,64,31,30.35,30.21,10,0,10,0.00
2013-3-8,72,52,34,44,38,31,97,65,23,30.31,30.18,12,0,12,0.00
2013-3-9,74,58,42,57,49,41,95,74,38,30.20,30.03,13,2,13,0.00
2013-3-10,74,65,57,64,60,55,96,83,69,30.05,29.92,26,3,26,0.00
2013-3-11,67,56,42,64,52,40,96,89,74,29.98,29.84,15,1,15,0.43
2013-3-12,64,50,37,42,38,35,96,66,37,30.19,29.98,14,2,14,0.00
2013-3-13,65,52,36,40,31,20,95,52,19,30.36,30.18,16,1,16,0.00
2013-3-14,65,50,37,38,28,19,83,46,20,30.45,30.28,13,1,13,0.00
2013-3-15,76,57,38,50,42,36,97,63,31,30.31,30.13,9,1,10,0.00
2013-3-16,78,62,46,58,52,44,97,72,40,30.13,29.98,11,1,12,0.00
2013-3-17,74,62,51,63,58,50,98,87,63,30.01,29.89,9,0,9,0.00
2013-3-18,82,70,61,70,65,58,96,84,61,29.92,29.77,15,1,15,0.00
2013-3-19,77,64,54,58,51,43,90,65,35,30.04,29.87,14,2,16,0.00
2013-3-20,65,57,43,44,36,29,71,46,28,30.12,29.98,15,2,16,0.00
2013-3-21,66,52,37,41,31,25,83,49,22,30.08,29.89,13,1,13,0.00
2013-3-22,67,58,48,57,49,41,84,72,57,29.93,29.84,16,2,16,0.00
2013-3-23,75,65,60,70,60,51,98,85,70,29.88,29.57,8,1,9,0.14
2013-3-24,83,68,47,70,56,31,97,68,35,29.94,29.55,18,2,18,0.00
2013-3-25,59,47,35,33,26,18,75,48,21,30.22,29.94,12,2,19,0.00
2013-3-26,56,44,32,28,26,23,78,52,30,30.37,30.22,15,2,18,0.00
2013-3-27,63,46,28,38,30,25,94,59,24,30.44,30.28,7,1,13,0.00
2013-3-28,72,52,32,43,35,28,97,61,21,30.37,30.23,8,1,8,0.00
2013-3-29,75,57,37,52,44,35,96,68,28,30.34,30.20,10,1,10,0.00
2013-3-30,79,63,48,59,54,47,98,74,38,30.21,30.03,13,1,13,0.00
2013-3-31,82,66,55,66,60,54,98,84,50,30.07,29.88,4,0,11,0.33
2013-4-1,74,61,52,60,56,51,98,86,51,30.08,29.91,8,0,9,0.01
2013-4-2,80,64,46,56,50,45,98,66,31,30.13,30.00,12,1,12,0.01
2013-4-3,63,57,53,60,54,51,97,90,80,30.08,29.74,22,2,24,1.23
2013-4-4,73,60,54,62,55,50,96,85,65,29.96,29.86,9,1,9,0.01
2013-4-5,68,55,46,50,48,44,94,78,50,30.11,29.94,17,2,17,0.00
2013-4-6,76,58,39,53,46,38,98,71,28,30.17,30.08,12,1,12,0.00
2013-4-7,76,60,44,60,54,43,98,81,51,30.14,30.03,8,0,9,0.00
2013-4-8,79,69,57,69,64,55,98,84,63,30.07,29.98,13,2,18,0.01
2013-4-9,82,74,68,71,68,65,96,83,65,30.08,29.96,17,2,18,0.00
2013-4-10,81,72,64,70,67,62,96,84,69,30.03,29.88,17,2,17,0.00
2013-4-11,82,72,58,74,68,56,96,90,76,29.88,29.58,21,1,21,1.75
2013-4-12,75,61,50,56,49,46,94,70,36,29.97,29.79,14,2,15,0.00
2013-4-13,81,63,45,57,50,44,97,68,31,30.05,29.90,13,1,13,0.00
2013-4-14,65,60,57,63,59,55,98,94,83,29.99,29.73,18,1,19,1.31
2013-4-15,76,67,62,71,65,62,98,95,85,29.98,29.82,5,0,5,0.00
2013-4-16,84,72,65,73,68,64,98,87,67,30.11,30.01,6,0,13,0.01
2013-4-17,84,73,66,74,68,64,98,84,63,30.12,30.00,12,1,12,0.00
2013-4-18,82,73,64,73,69,63,98,88,74,30.00,29.85,14,1,15,0.00
2013-4-19,75,55,42,72,53,41,97,93,76,30.17,29.79,22,1,22,1.54
2013-4-20,68,53,36,47,41,35,98,70,35,30.27,30.12,17,1,17,0.01
2013-4-21,74,58,41,50,45,40,96,67,36,30.22,30.10,12,1,12,0.00
2013-4-22,82,66,48,65,58,47,95,75,48,30.14,30.03,10,1,10,0.00
2013-4-23,82,68,56,66,61,55,98,81,54,30.11,30.03,12,1,12,0.00
2013-4-24,74,67,60,69,65,59,99,93,81,30.15,30.00,9,0,9,0.26
2013-4-25,76,62,54,60,54,47,96,76,43,30.29,30.15,12,2,12,0.00
2013-4-26,82,66,52,59,51,44,84,60,38,30.30,30.20,9,0,9,0.00
2013-4-27,84,70,57,69,63,55,96,80,52,30.22,30.04,12,1,12,0.00
2013-4-28,84,72,66,71,66,62,98,85,56,30.07,29.95,10,0,10,0.00
2013-4-29,85,71,64,68,64,61,96,81,45,29.99,29.88,3,0,7,0.00
2013-4-30,81,70,63,72,66,62,98,89,65,29.94,29.88,6,0,9,0.48
2013-5-1,74,68,62,70,66,61,98,96,88,29.94,29.85,20,1,20,2.72
2013-5-2,75,66,62,68,64,61,98,94,78,29.98,29.87,12,2,13,4.23
2013-5-3,73,63,48,68,61,46,98,92,77,29.97,29.81,15,2,15,0.46
2013-5-4,70,56,43,47,42,35,95,65,29,29.97,29.87,15,2,15,0.07
2013-5-5,70,58,47,57,46,40,95,69,42,30.00,29.84,13,1,13,0.00
2013-5-6,76,59,44,56,50,42,96,74,43,30.02,29.91,10,0,10,0.00
2013-5-7,78,65,51,60,56,50,98,76,49,30.04,29.95,9,0,9,0.00
2013-5-8,86,70,54,64,60,54,98,74,39,30.11,30.00,8,0,8,0.00
2013-5-9,85,71,57,70,62,56,98,78,47,30.14,30.04,9,0,9,0.00
2013-5-10,78,68,64,68,65,62,98,91,66,30.14,29.88,12,0,12,0.53
2013-5-11,78,68,61,71,65,60,99,92,73,30.06,29.94,7,0,7,0.31
2013-5-12,79,70,59,65,59,54,98,72,48,30.13,30.00,11,1,11,0.01
2013-5-13,78,65,50,54,47,36,90,57,27,30.28,30.12,13,1,13,0.00
2013-5-14,86,69,51,62,56,50,97,67,31,30.28,30.16,8,0,8,0.00
2013-5-15,86,72,56,66,58,51,98,66,36,30.22,30.04,10,0,10,0.00
2013-5-16,86,74,64,70,66,60,92,77,53,30.05,29.97,11,1,11,0.00
2013-5-17,87,76,67,72,70,66,98,82,58,30.05,29.98,1,0,8,0.00
2013-5-18,88,78,70,74,72,69,98,82,62,30.07,30.00,1,0,7,0.00
2013-5-19,86,76,68,75,72,68,98,86,65,30.04,29.98,7,0,7,0.00
2013-5-20,94,79,69,76,71,67,99,78,45,30.04,29.96,11,0,11,0.00
2013-5-21,89,78,67,75,71,66,99,81,58,29.99,29.88,11,0,11,0.01
2013-5-22,86,75,66,75,68,65,99,81,55,30.05,29.89,15,0,15,0.04
2013-5-23,93,79,65,73,68,61,98,72,37,30.05,29.94,8,0,8,0.00
2013-5-24,88,78,64,71,66,58,98,69,45,30.16,30.02,12,1,12,0.00
2013-5-25,89,72,59,63,55,47,88,59,28,30.24,30.14,10,0,10,0.00
2013-5-26,90,74,59,70,62,56,95,70,35,30.21,30.12,8,0,8,0.00
2013-5-27,88,76,64,73,66,60,98,74,44,30.16,30.06,13,1,13,0.00
2013-5-28,89,74,59,73,66,58,98,79,47,30.09,30.03,12,1,12,0.00
2013-5-29,88,78,70,76,72,68,98,82,63,30.05,30.00,14,1,15,0.00
2013-5-30,86,78,73,75,72,70,96,81,62,30.06,29.99,16,2,16,0.03
2013-5-31,89,80,75,76,73,71,91,81,62,30.05,29.96,9,2,13,0.01
2013-6-1,89,79,74,78,75,72,96,87,67,30.00,29.93,12,1,12,0.09
2013-6-2,96,80,71,75,72,68,98,78,44,29.99,29.84,11,0,11,0.44
2013-6-3,90,78,68,78,73,68,99,86,62,29.92,29.83,8,0,8,0.12
2013-6-4,95,81,70,78,74,69,98,79,51,29.94,29.87,10,1,10,0.01
2013-6-5,92,80,68,78,73,66,97,81,56,29.94,29.83,17,1,17,0.05
2013-6-6,90,76,64,74,69,64,98,81,52,29.86,29.72,16,1,16,0.00
2013-6-7,89,76,68,73,69,66,97,80,55,29.89,29.76,8,0,8,0.00
2013-6-8,92,80,68,76,72,66,96,79,55,30.05,29.88,9,0,10,0.43
2013-6-9,81,74,69,75,72,68,98,92,80,30.02,29.91,11,1,11,0.32
2013-6-10,88,75,70,79,73,69,99,93,72,30.05,29.96,5,0,6,0.54
2013-6-11,97,83,73,80,75,71,99,80,45,30.10,30.00,6,0,6,0.00
2013-6-12,98,84,74,80,75,71,98,77,45,30.08,29.98,7,0,7,0.00
2013-6-13,98,85,75,79,74,71,95,71,45,30.03,29.85,9,0,9,0.00
2013-6-14,93,83,74,77,72,67,96,71,46,29.94,29.84,13,1,13,0.06
2013-6-15,94,81,68,77,71,64,92,73,50,30.01,29.92,7,0,7,0.00
2013-6-16,95,83,74,79,76,72,98,80,50,30.04,29.96,7,0,7,0.00
2013-6-17,96,85,75,80,76,74,98,76,54,30.01,29.93,9,0,9,0.00
2013-6-18,96,83,71,77,74,70,95,76,45,30.00,29.87,10,0,10,1.00
2013-6-19,88,78,70,76,72,69,98,84,60,30.03,29.92,7,0,7,0.01
2013-6-20,92,80,70,76,72,69,98,79,48,30.09,30.00,9,1,9,0.00
2013-6-21,93,80,71,76,72,69,97,80,50,30.11,30.04,12,1,14,0.00
2013-6-22,92,80,70,76,72,67,98,78,48,30.11,29.99,9,1,9,0.00
2013-6-23,90,78,72,79,75,70,98,89,64,30.09,30.01,7,0,7,0.51
2013-6-24,89,79,72,80,75,72,98,89,65,30.16,30.06,5,0,6,0.11
2013-6-25,93,81,70,78,74,70,99,82,60,30.13,30.01,9,0,9,0.01
2013-6-26,94,82,72,80,76,72,98,83,59,30.07,29.96,10,0,10,0.00
2013-6-27,97,85,74,80,76,72,97,76,47,30.01,29.89,9,0,9,0.00
2013-6-28,98,87,77,81,77,75,97,76,49,29.92,29.74,9,0,9,0.00
2013-6-29,96,81,72,79,74,69,96,80,48,29.79,29.66,16,0,16,0.17
2013-6-30,93,82,72,76,70,63,98,72,38,29.77,29.69,5,0,8,0.01
2013-7-1,92,81,70,70,67,62,88,64,38,29.90,29.76,10,1,10,0.00
2013-7-2,94,80,68,72,69,65,94,71,42,30.00,29.88,6,0,6,0.00
2013-7-3,87,77,72,76,72,70,97,87,60,30.02,29.92,10,1,12,0.36
2013-7-4,89,77,72,77,74,71,98,90,67,30.00,29.91,10,1,10,1.03
2013-7-5,76,74,72,75,73,70,98,96,91,30.08,29.98,9,0,9,0.16
2013-7-6,78,73,71,75,72,70,99,96,88,30.06,29.99,5,0,5,2.12
2013-7-7,80,75,73,77,74,72,99,97,85,30.12,30.01,5,0,5,1.06
2013-7-8,87,74,73,79,74,72,99,98,76,30.16,30.08,1,0,7,0.20
2013-7-9,96,83,70,79,75,69,99,78,49,30.18,30.06,6,0,6,0.01
2013-7-10,94,80,73,79,75,72,98,87,54,30.10,29.96,7,0,7,0.01
2013-7-11,86,77,73,79,74,72,99,91,77,30.00,29.87,8,0,11,0.02
2013-7-12,94,77,70,79,72,68,97,86,59,29.92,29.84,9,0,9,0.51
2013-7-13,91,76,69,80,72,68,99,89,61,29.97,29.86,12,0,12,0.04
2013-7-14,92,78,68,75,71,67,98,81,51,30.02,29.91,10,1,10,0.00
2013-7-15,87,78,72,78,74,71,98,89,70,30.12,30.01,13,1,14,0.04
2013-7-16,88,79,72,78,74,70,97,84,66,30.18,30.09,13,1,13,0.00
2013-7-17,93,83,72,77,74,71,97,77,50,30.21,30.09,7,0,9,0.00
2013-7-18,93,80,73,78,73,71,96,83,54,30.14,30.00,11,0,11,0.00
2013-7-19,88,77,69,77,73,69,99,90,65,30.08,29.95,6,0,11,0.20
2013-7-20,90,79,73,80,75,72,99,88,63,30.01,29.91,6,0,6,0.27
2013-7-21,94,80,73,79,75,72,97,86,58,30.05,29.97,11,0,11,0.23
2013-7-22,89,76,71,81,74,71,99,93,67,30.06,29.99,14,0,14,0.26
2013-7-23,94,81,71,81,75,71,99,84,55,30.04,29.91,10,1,13,0.01
2013-7-24,93,80,72,80,76,70,97,87,58,29.95,29.86,5,0,16,0.25
2013-7-25,92,82,72,79,74,71,98,81,59,29.99,29.86,10,1,10,0.00
2013-7-26,95,84,70,77,73,69,98,71,46,30.04,29.95,7,0,7,0.00
2013-7-27,84,77,72,78,73,70,98,90,80,29.98,29.87,2,0,4,0.88
2013-7-28,91,80,72,78,75,71,99,85,65,29.99,29.85,8,0,9,0.00
2013-7-29,78,75,74,76,74,73,98,96,94,30.05,29.97,4,0,4,0.00
2013-7-30,94,87,74,80,78,73,98,77,58,30.15,30.04,8,0,8,0.00
2013-7-31,95,82,76,80,76,73,97,83,58,30.09,29.97,6,0,11,0.00
2013-8-1,96,81,73,80,76,72,98,86,53,30.00,29.88,22,0,22,1.52
2013-8-2,93,81,70,79,74,70,99,81,50,30.01,29.91,6,0,6,0.01
2013-8-3,97,84,72,81,75,70,99,78,46,30.06,29.97,7,0,7,0.00
2013-8-4,97,84,75,80,76,74,98,79,51,30.07,29.96,9,0,9,0.00
2013-8-5,94,80,74,82,76,73,98,86,59,30.03,29.93,12,0,12,1.33
2013-8-6,98,83,73,81,76,72,99,83,53,30.02,29.89,12,0,12,2.09
2013-8-7,94,82,72,82,76,72,99,84,60,29.98,29.90,11,0,11,0.00
2013-8-8,96,84,74,81,77,74,98,82,55,29.98,29.89,5,0,9,0.00
2013-8-9,93,83,76,80,77,75,97,84,59,30.04,29.93,11,1,11,0.00
2013-8-10,93,82,74,80,76,74,98,83,58,30.09,30.01,10,1,10,0.00
2013-8-11,95,81,73,80,76,71,98,87,58,30.13,30.06,11,0,11,0.55
2013-8-12,88,80,74,82,77,73,99,92,76,30.11,30.01,4,0,4,0.10
2013-8-13,95,78,72,81,75,71,99,92,58,30.03,29.92,8,0,15,2.90
2013-8-14,88,78,72,77,74,71,99,87,68,29.97,29.89,7,0,9,0.01
2013-8-15,87,78,72,76,73,71,98,85,66,29.98,29.90,6,0,11,0.00
2013-8-16,86,77,72,76,72,71,97,86,66,30.00,29.92,12,1,12,0.10
2013-8-17,75,73,71,73,72,70,98,96,91,30.00,29.92,8,0,8,0.24
2013-8-18,76,72,69,75,72,69,99,98,95,30.04,29.96,17,1,17,2.54
2013-8-19,92,80,72,81,76,71,99,89,63,30.04,29.95,7,0,7,0.01
2013-8-20,89,78,69,79,74,68,99,89,68,30.08,29.98,6,0,14,0.00
2013-8-21,91,79,71,79,74,70,98,86,59,30.13,30.03,9,0,9,0.00
2013-8-22,91,79,70,77,74,69,98,85,61,30.10,29.95,13,1,13,0.47
2013-8-23,84,77,72,76,74,72,99,91,77,30.03,29.93,9,0,9,0.00
2013-8-24,83,76,71,77,73,70,98,92,77,30.12,29.98,7,0,7,0.01
2013-8-25,86,76,71,76,73,70,98,90,69,30.19,30.09,9,0,9,0.01
2013-8-26,88,78,69,73,69,65,96,74,49,30.20,30.09,10,1,10,0.00
2013-8-27,84,70,63,71,65,62,97,87,55,30.12,30.08,8,0,8,0.00
2013-8-28,92,81,64,74,70,63,98,72,50,30.08,29.99,5,0,7,0.00
2013-8-29,94,80,67,74,70,66,98,74,44,30.07,29.96,5,0,5,0.00
2013-8-30,94,77,70,75,72,69,96,84,50,30.02,29.90,5,0,6,0.00
2013-8-31,95,81,73,81,74,70,96,81,56,29.96,29.84,5,0,8,0.58
2013-9-1,94,79,73,81,75,71,97,86,60,29.93,29.86,7,0,7,0.00
2013-9-2,95,83,75,79,76,72,98,82,57,29.98,29.87,12,0,12,0.00
2013-9-3,97,80,71,80,75,70,99,86,50,29.98,29.84,17,0,17,2.25
2013-9-4,93,77,69,81,74,69,99,91,62,30.08,29.95,7,0,7,0.78
2013-9-5,94,80,71,79,75,71,99,86,55,30.11,30.01,7,0,7,1.63
2013-9-6,91,80,71,77,73,69,99,80,50,30.10,29.98,3,0,5,0.01
2013-9-7,92,79,67,74,71,67,99,78,46,30.06,29.95,6,0,6,0.00
2013-9-8,93,81,69,76,72,68,98,77,50,30.00,29.92,7,0,7,0.00
2013-9-9,94,84,69,78,73,69,99,73,52,30.04,29.96,7,0,7,0.00
2013-9-10,92,79,71,77,73,70,98,85,56,30.11,30.02,18,0,18,0.16
2013-9-11,91,79,69,77,72,68,99,82,50,30.12,30.02,12,1,12,0.01
2013-9-12,92,79,68,77,72,68,98,80,50,30.04,29.90,7,0,7,0.00
2013-9-13,94,81,70,76,72,68,99,77,46,29.93,29.80,8,0,8,0.00
2013-9-14,85,78,72,73,69,65,90,76,53,29.99,29.85,9,0,9,0.00
2013-9-15,93,79,67,75,68,60,95,71,42,30.06,29.98,6,0,6,0.00
2013-9-16,93,80,69,77,72,68,98,80,50,30.08,29.98,4,0,9,0.00
2013-9-17,92,80,71,80,73,69,96,81,57,30.08,29.96,10,0,10,0.03
2013-9-18,84,78,73,75,73,71,93,84,71,30.08,30.00,10,1,10,0.00
2013-9-19,89,79,72,75,71,69,93,79,57,30.07,29.98,12,1,12,0.00
2013-9-20,90,79,70,78,74,69,98,86,65,30.01,29.83,14,1,14,0.00
2013-9-21,79,76,70,77,74,69,98,95,89,29.83,29.71,9,0,9,0.34
2013-9-22,79,70,67,70,67,64,98,91,71,29.81,29.73,6,1,11,0.08
2013-9-23,88,72,64,79,69,62,98,90,67,29.88,29.79,6,0,6,0.81
2013-9-24,85,76,70,79,74,69,99,94,78,29.88,29.76,10,1,10,0.52
2013-9-25,86,76,70,75,71,69,99,87,59,29.82,29.74,7,0,7,0.01
2013-9-26,89,77,67,77,70,66,99,82,50,29.95,29.80,4,0,6,0.01
2013-9-27,84,74,65,69,67,63,97,80,55,30.04,29.94,9,1,9,0.00
2013-9-28,84,71,59,68,63,58,98,80,50,30.08,30.00,7,0,7,0.00
2013-9-29,84,71,61,68,64,59,97,80,53,30.05,29.95,9,0,9,0.00
2013-9-30,81,72,67,72,68,66,96,87,69,30.00,29.92,4,0,5,0.04
2013-10-1,87,75,67,74,69,66,98,84,58,30.06,29.97,9,0,9,0.00
2013-10-2,80,73,70,75,71,69,97,94,81,30.07,29.98,10,0,10,0.15
2013-10-3,88,78,70,77,74,70,99,87,66,30.06,29.96,7,1,10,0.18
2013-10-4,88,78,70,79,74,70,99,88,66,30.05,29.98,9,0,9,0.00
2013-10-5,87,78,72,78,74,71,99,89,70,30.03,29.93,11,1,11,0.00
2013-10-6,77,73,66,75,72,64,99,97,90,29.93,29.78,10,0,10,1.62
2013-10-7,75,64,59,64,57,53,94,79,46,30.00,29.86,15,2,15,0.00
2013-10-8,77,63,53,61,56,51,93,79,48,30.01,29.96,6,1,8,0.00
2013-10-9,80,70,61,70,65,58,97,86,73,30.10,29.99,10,1,10,0.00
2013-10-10,83,71,64,70,66,64,98,87,61,30.11,30.00,8,0,8,0.00
2013-10-11,87,72,61,71,66,60,99,84,51,30.07,29.96,5,0,5,0.01
2013-10-12,87,73,62,74,67,61,99,85,52,30.08,29.99,2,0,5,0.00
2013-10-13,85,74,64,73,67,64,99,82,56,30.16,30.06,10,1,10,0.00
2013-10-14,84,72,62,70,67,61,98,86,53,30.11,30.01,4,0,9,0.00
2013-10-15,84,72,62,70,66,61,97,82,58,30.07,29.95,7,0,7,0.00
2013-10-16,84,72,62,72,67,61,99,84,63,30.02,29.91,6,0,6,0.00
2013-10-17,83,74,65,76,70,62,97,86,73,29.97,29.89,9,1,9,0.05
2013-10-18,77,68,62,62,61,58,94,78,54,30.03,29.91,10,1,10,0.00
2013-10-19,67,63,56,64,60,55,97,90,79,30.02,29.91,8,0,8,0.36
2013-10-20,72,59,53,61,56,52,98,89,61,30.06,29.97,7,1,8,0.01
2013-10-21,73,63,55,63,58,54,97,86,66,30.07,29.96,6,0,8,0.00
2013-10-22,79,68,61,66,59,46,95,76,33,29.98,29.87,10,0,10,0.00
2013-10-23,71,61,48,56,49,43,93,69,37,30.13,29.96,14,1,14,0.00
2013-10-24,76,58,42,56,49,40,97,74,39,30.23,30.11,7,0,7,0.00
2013-10-25,64,56,46,55,45,38,91,68,41,30.39,30.20,14,2,14,0.00
2013-10-26,69,54,40,52,42,36,91,68,34,30.31,30.16,6,0,6,0.00
2013-10-27,75,58,44,61,51,42,97,80,45,30.18,30.08,3,0,6,0.00
2013-10-28,80,65,52,66,59,52,98,83,58,30.21,30.09,5,0,11,0.00
2013-10-29,79,65,52,66,60,52,99,85,57,30.26,30.18,5,0,7,0.00
2013-10-30,80,67,54,71,63,54,99,88,67,30.22,30.07,13,0,13,0.01
2013-10-31,81,74,68,72,69,66,97,86,70,30.08,29.83,4,0,12,0.12
2013-11-1,76,69,59,72,63,52,97,83,56,29.91,29.77,8,0,8,0.01
2013-11-2,74,62,51,55,50,44,91,66,44,30.13,29.88,11,1,11,0.00
2013-11-3,66,55,42,49,45,41,96,71,44,30.23,30.13,13,1,13,0.00
2013-11-4,71,58,41,56,50,40,97,76,56,30.28,30.17,12,1,12,0.00
2013-11-5,74,64,56,63,56,49,84,75,65,30.28,30.15,11,1,11,0.00
2013-11-6,77,67,57,69,62,52,95,84,74,30.16,30.06,7,1,9,0.00
2013-11-7,68,59,49,67,53,38,97,83,64,30.26,30.01,14,2,19,0.38
2013-11-8,63,50,41,42,38,34,93,64,37,30.32,30.18,17,2,17,0.00
2013-11-9,71,55,38,59,49,37,96,81,63,30.26,30.16,7,0,7,0.00
2013-11-10,73,60,48,58,54,47,95,81,53,30.26,30.17,13,1,13,0.00
2013-11-11,74,57,43,57,50,42,98,79,43,30.24,30.13,5,0,5,0.00
2013-11-12,70,54,40,54,45,25,98,72,52,30.44,30.16,21,3,21,0.01
2013-11-13,52,41,31,29,24,21,87,54,30,30.51,30.41,19,3,19,0.00
2013-11-14,62,48,28,48,38,25,90,71,50,30.42,30.16,9,0,9,0.00
2013-11-15,70,59,54,67,56,48,98,91,71,30.16,30.01,12,1,12,0.42
2013-11-16,71,66,60,68,64,60,99,95,90,30.10,29.99,11,1,11,0.00
2013-11-17,80,72,67,74,71,66,99,94,78,30.00,29.91,11,0,11,0.08
2013-11-18,74,70,62,73,67,58,99,92,62,30.05,29.93,16,0,16,0.38
2013-11-19,61,54,43,42,39,36,76,57,43,30.15,30.02,14,1,14,0.00
2013-11-20,69,53,38,57,47,35,96,80,56,30.16,30.04,7,0,7,0.00
2013-11-21,70,60,53,62,57,51,96,90,77,30.25,30.15,8,1,8,0.00
2013-11-22,79,68,59,71,65,58,98,91,76,30.21,30.13,6,0,6,0.08
2013-11-23,66,59,48,65,56,40,97,91,76,30.29,30.15,20,3,20,0.00
2013-11-24,51,44,38,40,30,25,76,57,38,30.39,30.28,23,3,23,0.00
2013-11-25,56,48,37,55,41,27,96,78,64,30.31,29.89,11,2,11,0.11
2013-11-26,63,50,43,62,49,41,99,94,88,29.92,29.71,18,2,18,2.10
2013-11-27,46,39,29,42,31,25,96,74,48,30.39,29.92,17,2,17,0.07
2013-11-28,48,34,25,33,26,22,95,74,39,30.49,30.36,9,1,9,0.00
2013-11-29,58,39,24,34,28,22,97,71,27,30.54,30.42,12,1,12,0.00
2013-11-30,64,43,27,48,36,26,97,81,45,30.45,30.26,3,0,5,0.00
2013-12-1,68,51,36,53,45,35,98,81,51,30.28,30.01,5,0,5,0.01
2013-12-2,72,59,45,58,52,44,98,80,52,30.01,29.79,5,0,5,0.00
2013-12-3,74,67,58,68,64,57,99,91,76,29.85,29.75,10,0,10,0.17
2013-12-4,79,70,64,72,68,63,99,95,78,29.96,29.84,7,0,7,0.00
2013-12-5,78,74,72,74,72,71,97,94,86,30.03,29.94,10,0,10,0.06
2013-12-6,80,70,50,74,67,49,97,92,81,30.16,29.96,15,1,15,1.01
2013-12-7,50,42,40,49,41,39,97,96,94,30.31,30.16,16,2,16,0.38
2013-12-8,68,54,42,68,53,41,99,98,94,30.22,30.03,5,0,5,0.00
2013-12-9,69,61,55,69,59,53,99,94,81,30.13,30.01,10,1,10,0.03
2013-12-10,57,44,35,56,41,33,96,89,75,30.35,30.01,18,2,18,0.22
2013-12-11,59,46,34,44,37,31,92,74,47,30.41,30.30,8,1,8,0.00
2013-12-12,54,45,33,38,31,26,80,59,34,30.50,30.38,16,2,16,0.00
2013-12-13,59,46,28,47,38,25,89,73,59,30.38,30.01,7,0,7,0.00
2013-12-14,76,63,50,68,59,45,97,87,69,30.01,29.81,10,0,12,0.11
2013-12-15,50,42,31,48,36,30,96,82,70,30.30,30.00,16,2,16,0.00
2013-12-16,57,41,29,42,35,28,97,82,45,30.35,30.25,7,0,7,0.01
2013-12-17,62,45,30,44,37,30,98,77,37,30.34,30.22,4,0,6,0.00
2013-12-18,63,47,35,43,38,34,98,75,37,30.38,30.25,10,0,10,0.00
2013-12-19,70,52,33,58,48,32,98,87,66,30.26,30.08,8,1,11,0.00
2013-12-20,75,64,56,68,62,55,99,93,78,30.12,29.99,10,1,10,0.01
2013-12-21,75,72,69,72,71,68,98,95,90,29.99,29.83,14,1,14,0.06
2013-12-22,74,60,53,72,59,52,98,97,88,30.13,29.82,13,1,13,3.80
2013-12-23,54,46,37,54,44,32,98,90,79,30.41,30.09,15,2,15,0.01
2013-12-24,49,38,28,32,29,25,91,74,49,30.51,30.38,11,2,17,0.00
2013-12-25,47,37,25,35,28,23,94,73,46,30.40,30.30,10,0,10,0.00
2013-12-26,53,43,33,40,34,29,87,73,52,30.37,30.27,10,1,10,0.00
2013-12-27,58,46,39,38,35,34,82,68,40,30.39,30.27,7,1,11,0.00
2013-12-28,52,46,45,46,44,38,97,92,59,30.27,29.93,11,1,11,3.06
2013-12-29,55,47,38,50,46,38,98,94,80,30.13,29.91,8,0,8,0.01
2013-12-30,59,47,37,51,45,36,99,92,71,30.31,30.10,4,0,4,0.01
2013-12-31,49,44,42,47,41,38,96,90,84,30.42,30.29,8,1,12,0.09
2014-1-1,56,49,42,53,48,41,98,96,91,30.34,30.06,4,0,4,0.13
2014-1-2,59,50,34,57,45,26,99,84,62,30.32,29.91,14,2,19,0.82